Regional Weather Roundup
Issued by NWS

Home | Current Version | Previous Version | Graphics & Text | Print | Product List | Glossary On
Versions: 1 2 3 4 5 6 7 8 9 10 11 12 13 14 15 16 17 18 19 20 21 22 23 24 25 26 27 28 29 30 31 32 33 34 35 36 37 38 39 40 41 42 43 44 45 46 47 48 49 50
000
ASUS43 KBIS 301710
RWRND

NORTH DAKOTA REGIONAL WEATHER ROUNDUP
NATIONAL WEATHER SERVICE BISMARCK ND
1200 PM CDT SAT MAY 30 2015

NOTE: "FAIR" INDICATES FEW OR NO CLOUDS BELOW 12,000 FEET WITH NO
SIGNIFICANT WEATHER AND/OR OBSTRUCTIONS TO VISIBILITY.


NDZ001>003-009>011-017-301800-
NORTHWEST NORTH DAKOTA

CITY           SKY/WX    TMP DP  RH WIND       PRES   REMARKS
WILLISTON      SUNNY     56  35  45 SE15G23   30.27F
MINOT          MOSUNNY   50  29  44 E15G24    30.37F
MINOT AFB      MOSUNNY   51  32  48 SE10      30.36F
$$

NDZ018>021-031>035-040>046-301800-
SOUTHWEST NORTH DAKOTA

CITY           SKY/WX    TMP DP  RH WIND       PRES   REMARKS
BISMARCK       MOSUNNY   50  31  48 E12       30.38F
DICKINSON      MOSUNNY   53  36  52 SE18      30.27F
GARRISON         N/A     50  31  48 E15       30.35F
HETTINGER ARPT MOSUNNY   53  38  56 SE16G23   30.28F
$$

NDZ004>008-012>016-024-026-027-054-301800-
NORTHEAST NORTH DAKOTA

CITY           SKY/WX    TMP DP  RH WIND       PRES   REMARKS
GRAND FORKS    MOSUNNY   47  29  49 NE16      30.41S
GRND FRKS AFB  SUNNY     47  27  45 NE13      30.41S
DEVILS LAKE    SUNNY     45  25  45 NE8G16    30.40F
$$

NDZ022-023-025-028>030-036>039-047>053-301800-
SOUTHEAST NORTH DAKOTA

CITY           SKY/WX    TMP DP  RH WIND       PRES   REMARKS
FARGO          SUNNY     48  34  58 N12G22    30.38S
JAMESTOWN      SUNNY     46  31  55 N6G16     30.38F
$$



USA.gov is the U.S. government's official web portal to all federal, state and local government web resources and services.